VE3ZEB-1 Weather Reports


Display with metric or nautical units.
time (UTC)temp
F
wind
direction
speed
MPH
gust
MPH
rain 1hr
in
rain 24hr
in
rain mn
in
humidity
%
barometer
mb
20260503222030 58 292 1.0 3.0 0.00 0.00 0.00 46 679.7
20260503221029 58 291 2.0 4.0 0.00 0.00 0.00 46 679.7
20260503220030 58 285 2.0 6.0 0.00 0.00 0.00 46 679.7
20260503215030 58 240 2.0 3.0 0.00 0.00 0.00 46 679.7
20260503214029 58 259 2.0 5.0 0.00 0.00 0.00 44 679.7
20260503213030 59 239 4.0 8.0 0.00 0.00 0.00 44 679.7
20260503212030 59 233 4.0 8.0 0.00 0.00 0.00 46 679.7
20260503211050 59 262 1.0 3.0 0.00 0.00 0.00 47 679.7
20260503210051 59 301 2.0 3.0 0.00 0.00 0.00 46 679.7
20260503205031 59 239 5.0 11.0 0.00 0.00 0.00 48 679.7
20260503204031 58 302 2.0 6.0 0.00 0.00 0.00 48 679.7
20260503203031 58 333 3.0 6.0 0.00 0.00 0.00 51 679.7
20260503202031 58 277 2.0 3.0 0.00 0.00 0.00 50 679.7
20260503201017 58 322 5.0 11.0 0.00 0.00 0.00 48 679.7
20260503200017 59 302 2.0 6.0 0.00 0.00 0.00 47 679.7
20260503195017 59 280 3.0 8.0 0.00 0.00 0.00 47 679.7
20260503194017 59 283 1.0 3.0 0.00 0.00 0.00 46 679.7
20260503193037 59 301 1.0 3.0 0.00 0.00 0.00 44 679.8
20260503192017 60 307 2.0 5.0 0.00 0.00 0.00 46 679.8
20260503191017 59 294 2.0 5.0 0.00 0.00 0.00 46 679.7
20260503190018 60 266 3.0 12.0 0.00 0.00 0.00 45 679.8
20260503185032 60 264 2.0 5.0 0.00 0.00 0.00 46 679.8
20260503184032 59 286 3.0 7.0 0.00 0.00 0.00 44 679.7
20260503183018 60 276 4.0 9.0 0.00 0.00 0.00 43 679.8
20260503182019 61 298 3.0 8.0 0.00 0.00 0.00 43 679.8
20260503181018 61 307 4.0 6.0 0.00 0.00 0.00 42 679.8
20260503180018 63 271 3.0 8.0 0.00 0.00 0.00 38 679.8
20260503175039 64 300 2.0 4.0 0.00 0.00 0.00 37 679.9
20260503174018 66 293 3.0 7.0 0.00 0.00 0.00 35 679.9
20260503173039 67 273 3.0 5.0 0.00 0.00 0.00 35 679.9
20260503172019 67 282 4.0 7.0 0.00 0.00 0.00 38 679.9
20260503171019 67 303 2.0 6.0 0.00 0.00 0.00 37 679.9
20260503131022 45 234 5.0 7.0 0.00 0.00 0.00 61 679.3
20260503080956 32 312 1.0 3.0 0.00 0.00 0.00 74 679.1
20260503072047 33 246 2.0 3.0 0.00 0.00 0.00 72 679.1
20260503071027 33 243 2.0 4.0 0.00 0.00 0.00 72 679.1
20260503055028 34 229 3.0 4.0 0.00 0.00 0.00 69 679.1
20260503054028 34 233 3.0 5.0 0.00 0.00 0.00 68 679.1
20260503053048 34 241 2.0 4.0 0.00 0.00 0.00 68 679.1
20260503052029 34 230 2.0 4.0 0.00 0.00 0.00 68 679.1
20260503051029 34 237 2.0 3.0 0.00 0.00 0.00 68 679.1
20260503050029 34 220 3.0 4.0 0.00 0.00 0.00 68 679.1
20260503045049 34 220 2.0 4.0 0.00 0.00 0.00 68 679.1
20260503044029 34 239 2.0 3.0 0.00 0.00 0.00 67 679.2
20260503043029 34 231 2.0 4.0 0.00 0.00 0.00 67 679.2
20260503042050 34 234 2.0 3.0 0.00 0.00 0.00 65 679.2
20260503041050 34 236 2.0 3.0 0.00 0.00 0.00 65 679.2
20260503040030 34 254 2.0 3.0 0.00 0.00 0.00 64 679.2
20260503035030 35 247 2.0 3.0 0.00 0.00 0.00 64 679.2
20260503034030 35 243 2.0 2.0 0.00 0.00 0.00 63 679.2
20260503033030 35 241 2.0 2.0 0.00 0.00 0.00 62 679.2
20260503032030 35 237 2.0 3.0 0.00 0.00 0.00 61 679.2
20260503031030 35 228 2.0 3.0 0.00 0.00 0.00 60 679.2
20260503030031 36 234 2.0 3.0 0.00 0.00 0.00 59 679.2
20260503025031 36 247 2.0 3.0 0.00 0.00 0.00 58 679.2
20260503024031 36 248 2.0 3.0 0.00 0.00 0.00 57 679.2
20260503023031 36 266 2.0 2.0 0.00 0.00 0.00 56 679.2
20260503022031 37 265 2.0 2.0 0.00 0.00 0.00 55 679.2
20260503021031 37 273 1.0 2.0 0.00 0.00 0.00 54 679.2
20260503020031 38 296 1.0 2.0 0.00 0.00 0.00 53 679.2
20260503015031 38 306 1.0 2.0 0.00 0.00 0.00 52 679.3
20260503014031 39 280 1.0 1.0 0.00 0.00 0.00 52 679.3
20260503013032 39 292 1.0 2.0 0.00 0.00 0.00 51 679.3
20260503012032 40 279 1.0 2.0 0.00 0.00 0.00 51 679.3
20260503011031 41 278 1.0 1.0 0.00 0.00 0.00 49 679.3
20260503010112 41 260 1.0 1.0 0.00 0.00 0.00 48 679.3
20260503005032 42 264 1.0 1.0 0.00 0.00 0.00 48 679.3
20260503004032 42 299 1.0 1.0 0.00 0.00 0.00 47 679.3
20260503003032 43 263 1.0 1.0 0.00 0.00 0.00 46 679.4
20260503002032 44 304 1.0 2.0 0.00 0.00 0.00 44 679.4
20260503001113 44 325 1.0 2.0 0.00 0.00 0.00 42 679.4
20260503000018 45 319 2.0 4.0 0.00 0.00 0.00 42 679.4
20260502235033 45 333 2.0 4.0 0.00 0.00 0.00 40 679.4
20260502234018 46 321 3.0 6.0 0.00 0.00 0.00 39 679.4
20260502233038 47 332 2.0 4.0 0.00 0.00 0.00 39 679.4
20260502232038 47 326 4.0 6.0 0.00 0.00 0.00 38 679.5
20260502231018 47 327 3.0 6.0 0.00 0.00 0.00 36 679.5
20260502230018 48 337 4.0 6.0 0.00 0.00 0.00 36 679.5
20260502225019 48 342 3.0 7.0 0.00 0.00 0.00 35 679.5
20260502224019 49 324 4.0 8.0 0.00 0.00 0.00 36 679.5
20260502223019 49 349 4.0 7.0 0.00 0.00 0.00 35 679.5